N0HOT Weather Reports


Display with metric or nautical units.
time (UTC)temp
F
wind
direction
speed
MPH
gust
MPH
rain 1hr
in
rain 24hr
in
rain mn
in
humidity
%
barometer
mb
20260831152201 79 328 0.0 0.0 0.00 0.00 0.00 69 1010.5
20260831151700 79 13 0.0 0.0 0.00 0.00 0.00 71 1010.5
20260831151155 79 356 0.0 0.0 0.00 0.00 0.00 72 1010.5
20260831150650 79 350 0.0 0.0 0.00 0.00 0.00 72 1010.5
20260831150145 78 7 0.0 0.0 0.00 0.00 0.00 72 1010.1
20260831145644 78 1 0.0 0.0 0.00 0.00 0.00 71 1010.1
20260831145141 78 3 0.0 0.0 0.00 0.00 0.00 73 1010.1
20260831144636 78 17 0.0 0.0 0.00 0.00 0.00 72 1010.1
20260831144132 77 23 0.0 0.0 0.00 0.00 0.00 73 1010.1
20260831143631 77 1 0.0 0.0 0.00 0.00 0.00 73 1009.8
20260831143127 76 2 0.0 0.0 0.00 0.00 0.00 73 1010.1
20260831142623 76 335 0.0 0.0 0.00 0.00 0.00 74 1010.1
20260831142119 76 358 0.0 0.0 0.00 0.00 0.00 75 1010.1
20260831141617 75 347 0.0 0.0 0.00 0.00 0.00 76 1009.8
20260831141113 75 11 0.0 0.0 0.00 0.00 0.00 77 1009.8
20260831140612 74 22 0.0 0.0 0.00 0.00 0.00 77 1009.4
20260831140107 73 355 0.0 0.0 0.00 0.00 0.00 77 1009.8
20260831135604 73 41 0.0 0.0 0.00 0.00 0.00 78 1009.8
20260831135101 72 41 0.0 0.0 0.00 0.00 0.00 79 1009.4
20260831134556 72 38 0.0 0.0 0.00 0.00 0.00 81 1009.8
20260831134051 72 38 0.0 0.0 0.00 0.00 0.00 83 1009.4
20260831133550 71 34 0.0 0.0 0.00 0.00 0.00 85 1009.8
20260831133045 71 32 0.0 0.0 0.00 0.00 0.00 86 1009.8
20260831132542 70 32 0.0 0.0 0.00 0.00 0.00 87 1009.8
20260831132040 70 32 0.0 0.0 0.00 0.00 0.00 87 1009.4
20260831131540 70 30 0.0 0.0 0.00 0.00 0.00 87 1009.8
20260831131037 69 29 0.0 0.0 0.00 0.00 0.00 87 1009.4
20260831130532 69 29 0.0 0.0 0.00 0.00 0.00 87 1009.4
20260831130027 69 28 0.0 0.0 0.00 0.00 0.00 87 1009.8
20260831125521 69 28 0.0 0.0 0.00 0.00 0.00 87 1009.4
20260831125016 69 27 0.0 0.0 0.00 0.00 0.00 87 1009.0
20260831124513 69 27 0.0 0.0 0.00 0.00 0.00 87 1009.4
20260831124008 69 27 0.0 0.0 0.00 0.00 0.00 87 1009.4
20260831123507 69 27 0.0 0.0 0.00 0.00 0.00 87 1009.4
20260831123002 69 27 0.0 0.0 0.00 0.00 0.00 86 1009.4
20260831122457 69 27 0.0 0.0 0.00 0.00 0.00 86 1009.4
20260831121952 69 27 0.0 0.0 0.00 0.00 0.00 86 1009.4
20260831121447 69 27 0.0 0.0 0.00 0.00 0.00 86 1009.0
20260831120943 69 27 0.0 0.0 0.00 0.00 0.00 86 1009.0
20260831120442 69 27 0.0 0.0 0.00 0.00 0.00 86 1009.0
20260831115937 69 26 0.0 0.0 0.00 0.00 0.00 86 1009.0
20260831115433 69 21 0.0 0.0 0.00 0.00 0.00 85 1009.0
20260831114933 69 65 0.0 0.0 0.00 0.00 0.00 85 1009.0
20260831114432 69 65 0.0 0.0 0.00 0.00 0.00 85 1008.7
20260831113928 70 65 0.0 0.0 0.00 0.00 0.00 85 1008.7
20260831113427 70 65 0.0 0.0 0.00 0.00 0.00 85 1009.0
20260831112923 70 65 0.0 0.0 0.00 0.00 0.00 85 1009.0
20260831112423 70 65 0.0 0.0 0.00 0.00 0.00 85 1009.0
20260831111918 70 65 0.0 0.0 0.00 0.00 0.00 85 1009.0
20260831111414 70 65 0.0 0.0 0.00 0.00 0.00 85 1009.0
20260831110909 71 65 0.0 0.0 0.00 0.00 0.00 85 1008.7
20260831110404 71 65 0.0 0.0 0.00 0.00 0.00 84 1009.0
20260831105902 71 65 0.0 0.0 0.00 0.00 0.00 83 1009.0
20260831105358 71 65 0.0 0.0 0.00 0.00 0.00 83 1008.7
20260831104854 71 65 0.0 0.0 0.00 0.00 0.00 83 1008.7
20260831104349 71 65 0.0 0.0 0.00 0.00 0.00 83 1009.0
20260831103844 71 65 0.0 0.0 0.00 0.00 0.00 83 1009.0
20260831103340 71 65 0.0 0.0 0.00 0.00 0.00 82 1008.7
20260831102835 71 65 0.0 0.0 0.00 0.00 0.00 82 1009.0
20260831102329 71 65 1.0 1.0 0.00 0.00 0.00 82 1008.7
20260831101826 71 65 0.0 0.0 0.00 0.00 0.00 82 1009.0
20260831101320 71 65 0.0 0.0 0.00 0.00 0.00 82 1009.0
20260831100816 71 65 0.0 0.0 0.00 0.00 0.00 81 1008.7
20260831100312 71 65 0.0 0.0 0.00 0.00 0.00 80 1009.0
20260831095811 72 65 0.0 0.0 0.00 0.00 0.00 80 1009.0
20260831095306 72 65 0.0 0.0 0.00 0.00 0.00 80 1009.0
20260831094801 72 65 0.0 0.0 0.00 0.00 0.00 80 1008.7
20260831094256 72 65 0.0 0.0 0.00 0.00 0.00 80 1008.7
20260831093752 72 65 0.0 0.0 0.00 0.00 0.00 80 1009.0
20260831093252 72 65 0.0 1.0 0.00 0.00 0.00 80 1008.7
20260831092749 72 65 0.0 0.0 0.00 0.00 0.00 80 1009.0
20260831092244 72 65 0.0 0.0 0.00 0.00 0.00 79 1008.7
20260831091744 72 65 0.0 0.0 0.00 0.00 0.00 79 1009.0
20260831091240 72 65 0.0 0.0 0.00 0.00 0.00 78 1009.0
20260831090735 72 65 1.0 1.0 0.00 0.00 0.00 78 1008.7
20260831090231 72 65 0.0 0.0 0.00 0.00 0.00 78 1008.7
20260831085727 72 65 1.0 1.0 0.00 0.00 0.00 79 1008.7
20260831085221 72 65 0.0 0.0 0.00 0.00 0.00 78 1008.7
20260831084717 73 65 0.0 0.0 0.00 0.00 0.00 78 1009.0
20260831084213 73 65 1.0 2.0 0.00 0.00 0.00 78 1009.0
20260831083709 73 66 0.0 0.0 0.00 0.00 0.00 78 1009.0
20260831083204 73 66 0.0 0.0 0.00 0.00 0.00 77 1009.0
20260831082702 73 66 0.0 1.0 0.00 0.00 0.00 77 1008.7
20260831082158 73 66 0.0 0.0 0.00 0.00 0.00 77 1009.0
20260831081653 73 66 0.0 0.0 0.00 0.00 0.00 77 1009.0
20260831081149 73 66 0.0 0.0 0.00 0.00 0.00 77 1009.0
20260831080645 73 66 0.0 0.0 0.00 0.00 0.00 77 1008.7
20260831080139 73 66 0.0 0.0 0.00 0.00 0.00 77 1009.4
20260831075635 73 66 0.0 0.0 0.00 0.00 0.00 76 1009.0
20260831075130 73 66 0.0 1.0 0.00 0.00 0.00 76 1009.0
20260831074629 74 66 0.0 0.0 0.00 0.00 0.00 76 1009.0
20260831074124 74 66 0.0 0.0 0.00 0.00 0.00 76 1009.0
20260831073619 74 66 0.0 0.0 0.00 0.00 0.00 76 1009.4
20260831073119 74 66 1.0 1.0 0.00 0.00 0.00 76 1009.4
20260831072614 74 66 0.0 0.0 0.00 0.00 0.00 75 1009.0
20260831072111 74 66 0.0 0.0 0.00 0.00 0.00 75 1009.0
20260831071609 74 66 0.0 0.0 0.00 0.00 0.00 75 1009.4
20260831071104 74 66 0.0 0.0 0.00 0.00 0.00 75 1009.0
20260831070603 74 66 0.0 0.0 0.00 0.00 0.00 75 1009.4
20260831070058 74 65 1.0 2.0 0.00 0.00 0.00 74 1009.4
20260831065556 74 83 1.0 1.0 0.00 0.00 0.00 75 1009.4
20260831065051 74 70 0.0 0.0 0.00 0.00 0.00 75 1009.0
20260831064546 74 70 0.0 1.0 0.00 0.00 0.00 75 1009.4
20260831064041 74 73 1.0 1.0 0.00 0.00 0.00 75 1009.4
20260831063537 74 73 0.0 0.0 0.00 0.00 0.00 75 1009.4
20260831063031 74 73 0.0 0.0 0.00 0.00 0.00 75 1009.4
20260831062526 74 73 0.0 0.0 0.00 0.00 0.00 74 1009.4
20260831062026 74 61 0.0 0.0 0.00 0.00 0.00 74 1009.8
20260831061524 75 40 0.0 0.0 0.00 0.00 0.00 74 1009.4
20260831061021 75 78 0.0 0.0 0.00 0.00 0.00 73 1009.8
20260831060520 75 76 0.0 0.0 0.00 0.00 0.00 73 1010.1
20260831060016 75 82 0.0 0.0 0.00 0.00 0.00 73 1009.8
20260831055510 75 119 0.0 0.0 0.00 0.00 0.00 74 1010.1
20260831055006 75 116 0.0 0.0 0.00 0.00 0.00 73 1010.1
20260831054506 75 91 0.0 0.0 0.00 0.00 0.00 73 1010.1
20260831054005 75 115 0.0 0.0 0.00 0.00 0.00 72 1010.1
20260831053503 75 112 0.0 0.0 0.00 0.00 0.00 72 1010.5
20260831052957 75 130 1.0 1.0 0.00 0.00 0.00 72 1010.5
20260831052452 75 148 1.0 1.0 0.00 0.00 0.00 72 1010.5
20260831051950 75 89 1.0 1.0 0.00 0.00 0.00 72 1010.1
20260831051449 75 191 0.0 0.0 0.00 0.00 0.00 72 1010.5
20260831050943 75 224 1.0 1.0 0.00 0.00 0.00 72 1010.1
20260831050443 75 141 2.0 3.0 0.00 0.00 0.00 72 1010.1
20260831045942 75 156 1.0 1.0 0.00 0.00 0.00 71 1010.5
20260831045441 75 150 1.0 2.0 0.00 0.00 0.00 71 1010.1
20260831044936 75 161 1.0 2.0 0.00 0.00 0.00 71 1010.1
20260831044431 75 113 1.0 2.0 0.00 0.00 0.00 71 1010.1
20260831043927 75 171 1.0 1.0 0.00 0.00 0.00 71 1010.5
20260831043426 75 114 1.0 1.0 0.00 0.00 0.00 71 1010.5
20260831042917 75 83 2.0 3.0 0.00 0.00 0.00 71 1010.1
20260831042416 75 150 1.0 2.0 0.00 0.00 0.00 71 1010.5
20260831041911 75 37 1.0 2.0 0.00 0.00 0.00 71 1010.5
20260831041410 75 138 1.0 2.0 0.00 0.00 0.00 70 1010.5
20260831040905 75 154 1.0 2.0 0.00 0.00 0.00 71 1010.5
20260831040400 75 192 1.0 2.0 0.00 0.00 0.00 71 1010.8
20260831035858 75 144 2.0 3.0 0.00 0.00 0.00 71 1010.5
20260831035357 74 148 2.0 3.0 0.00 0.00 0.00 71 1010.5
20260831034851 74 114 0.0 1.0 0.00 0.00 0.00 72 1010.8
20260831034347 74 88 1.0 1.0 0.00 0.00 0.00 72 1010.5
20260831033842 74 142 0.0 1.0 0.00 0.00 0.00 71 1010.5
20260831033343 74 142 2.0 2.0 0.00 0.00 0.00 71 1010.8
20260831032838 74 146 1.0 2.0 0.00 0.00 0.00 72 1010.5
20260831032332 74 74 1.0 2.0 0.00 0.00 0.00 72 1010.8
20260831031827 74 87 0.0 1.0 0.00 0.00 0.00 72 1010.8
20260831031327 74 82 0.0 1.0 0.00 0.00 0.00 72 1011.1
20260831030822 74 81 0.0 0.0 0.00 0.00 0.00 72 1010.8
20260831030320 74 49 1.0 1.0 0.00 0.00 0.00 73 1011.1
20260831025814 74 55 1.0 1.0 0.00 0.00 0.00 72 1011.1
20260831025308 74 55 1.0 1.0 0.00 0.00 0.00 73 1011.1
20260831024804 74 55 1.0 1.0 0.00 0.00 0.00 73 1011.1
20260831024303 74 55 1.0 1.0 0.00 0.00 0.00 73 1011.1
20260831023802 74 89 0.0 1.0 0.00 0.00 0.00 73 1011.1
20260831023301 74 66 0.0 0.0 0.00 0.00 0.00 72 1011.5
20260831022756 74 37 0.0 0.0 0.00 0.00 0.00 72 1011.1
20260831022255 74 49 1.0 1.0 0.00 0.00 0.00 72 1011.1
20260831021750 73 49 0.0 0.0 0.00 0.00 0.00 72 1011.5
20260831021250 73 49 0.0 1.0 0.00 0.00 0.00 73 1011.8
20260831020747 73 49 0.0 1.0 0.00 0.00 0.00 73 1011.1
20260831020245 73 49 0.0 0.0 0.00 0.00 0.00 74 1011.5
20260831015741 73 49 0.0 0.0 0.00 0.00 0.00 75 1011.1
20260831015236 73 49 1.0 1.0 0.00 0.00 0.00 75 1011.1
20260831014731 74 49 0.0 1.0 0.00 0.00 0.00 76 1011.1
20260831014226 74 49 2.0 2.0 0.00 0.00 0.00 75 1011.1
20260831013722 74 45 2.0 3.0 0.00 0.00 0.00 76 1011.1
20260831013221 74 53 0.0 0.0 0.00 0.00 0.00 76 1011.1
20260831012716 74 37 0.0 0.0 0.00 0.00 0.00 76 1011.1
20260831012212 74 37 0.0 0.0 0.00 0.00 0.00 76 1011.1
20260831011711 74 37 0.0 0.0 0.00 0.00 0.00 75 1010.8
20260831011207 74 33 0.0 0.0 0.00 0.00 0.00 75 1010.8
20260831010702 74 91 0.0 1.0 0.00 0.00 0.00 75 1010.8
20260831010157 74 91 0.0 0.0 0.00 0.00 0.00 75 1010.8
20260831005657 74 91 0.0 1.0 0.00 0.00 0.00 75 1010.8
20260831005153 74 78 1.0 2.0 0.00 0.00 0.00 76 1010.8
20260831004648 74 353 1.0 1.0 0.00 0.00 0.00 76 1010.8
20260831004144 74 44 0.0 0.0 0.00 0.00 0.00 76 1010.8
20260831003640 74 74 0.0 0.0 0.00 0.00 0.00 76 1010.8
20260831003136 75 5 0.0 0.0 0.00 0.00 0.00 77 1010.8
20260831002634 75 358 0.0 0.0 0.00 0.00 0.00 77 1010.8
20260831002129 75 349 0.0 1.0 0.00 0.00 0.00 77 1011.1
20260831001625 75 42 1.0 1.0 0.00 0.00 0.00 77 1010.8
20260831001121 75 28 0.0 1.0 0.00 0.00 0.00 77 1010.8
20260831000618 76 49 0.0 1.0 0.00 0.00 0.00 77 1010.8
20260831000117 76 49 0.0 0.0 0.00 0.00 0.00 77 1010.5
20260830235616 76 49 1.0 1.0 0.00 0.00 0.00 78 1010.8
20260830235111 77 49 0.0 1.0 0.00 0.00 0.00 78 1010.5
20260830234606 77 49 0.0 0.0 0.00 0.00 0.00 78 1010.5
20260830234101 77 49 0.0 0.0 0.00 0.00 0.00 77 1010.1
20260830233556 77 49 0.0 0.0 0.00 0.00 0.00 76 1010.1
20260830233052 77 49 0.0 0.0 0.00 0.00 0.00 76 1009.8
20260830232548 78 49 0.0 0.0 0.00 0.00 0.00 75 1009.8
20260830232044 78 49 0.0 0.0 0.00 0.00 0.00 75 1010.1
20260830231539 78 49 0.0 0.0 0.00 0.00 0.00 74 1010.1
20260830231038 79 49 0.0 0.0 0.00 0.00 0.00 74 1010.5
20260830230534 79 50 0.0 0.0 0.00 0.00 0.00 72 1010.1
20260830230029 79 50 0.0 0.0 0.00 0.00 0.00 71 1010.1
20260830225524 79 50 0.0 0.0 0.00 0.00 0.00 71 1010.1
20260830225023 80 50 0.0 0.0 0.00 0.00 0.00 71 1010.1
20260830224522 80 50 0.0 0.0 0.00 0.00 0.00 70 1009.8
20260830224019 81 50 0.0 0.0 0.00 0.00 0.00 71 1010.1
20260830223516 81 50 0.0 0.0 0.00 0.00 0.00 70 1009.8
20260830223015 81 56 0.0 0.0 0.00 0.00 0.00 71 1010.1
20260830222510 81 56 0.0 1.0 0.00 0.00 0.00 69 1009.4
20260830222006 81 87 0.0 0.0 0.00 0.00 0.00 67 1009.8
20260830221502 82 87 0.0 0.0 0.00 0.00 0.00 66 1010.1
20260830220958 82 76 1.0 1.0 0.00 0.00 0.00 64 1009.8
20260830220457 82 43 0.0 0.0 0.00 0.00 0.00 67 1010.1
20260830215954 82 38 0.0 0.0 0.00 0.00 0.00 66 1010.1
20260830215450 82 281 1.0 2.0 0.00 0.00 0.00 68 1010.1
20260830214944 82 19 0.0 1.0 0.00 0.00 0.00 65 1010.1
20260830214440 82 357 0.0 0.0 0.00 0.00 0.00 67 1009.8
20260830213934 83 357 0.0 0.0 0.00 0.00 0.00 66 1009.8
20260830213430 84 292 1.0 1.0 0.00 0.00 0.00 65 1009.8
20260830212925 84 59 0.0 0.0 0.00 0.00 0.00 65 1009.4
20260830212421 84 59 1.0 2.0 0.00 0.00 0.00 63 1009.8
20260830211920 85 59 0.0 0.0 0.00 0.00 0.00 62 1009.4
20260830211415 84 357 0.0 0.0 0.00 0.00 0.00 60 1009.4
20260830210911 84 56 1.0 2.0 0.00 0.00 0.00 58 1009.4
20260830210409 84 104 0.0 0.0 0.00 0.00 0.00 61 1009.4
20260830205907 83 65 0.0 1.0 0.00 0.00 0.00 57 1009.4
20260830205406 83 142 1.0 2.0 0.00 0.00 0.00 60 1009.4
20260830204902 83 299 1.0 1.0 0.00 0.00 0.00 59 1009.4
20260830204401 83 53 0.0 0.0 0.00 0.00 0.00 62 1009.8
20260830203856 83 53 1.0 1.0 0.00 0.00 0.00 63 1009.8
20260830203353 83 69 0.0 1.0 0.00 0.00 0.00 62 1009.8
20260830202851 84 135 1.0 1.0 0.00 0.00 0.00 62 1009.8
20260830202347 84 177 0.0 0.0 0.00 0.00 0.00 60 1009.8
20260830201842 84 102 0.0 0.0 0.00 0.00 0.00 63 1009.8
20260830201337 84 154 0.0 1.0 0.00 0.00 0.00 62 1009.8
20260830200832 83 95 0.0 0.0 0.00 0.00 0.00 62 1010.1
20260830200331 83 241 0.0 1.0 0.00 0.00 0.00 61 1010.1
20260830195827 83 89 0.0 1.0 0.00 0.00 0.00 61 1010.1
20260830195326 83 22 0.0 0.0 0.00 0.00 0.00 61 1010.1
20260830194819 83 258 1.0 1.0 0.00 0.00 0.00 62 1010.1
20260830194318 83 280 0.0 1.0 0.00 0.00 0.00 64 1010.1
20260830193814 83 256 0.0 0.0 0.00 0.00 0.00 63 1010.5
20260830193307 83 125 0.0 1.0 0.00 0.00 0.00 63 1010.1
20260830192804 83 121 0.0 0.0 0.00 0.00 0.00 62 1010.1
20260830192305 83 220 0.0 0.0 0.00 0.00 0.00 60 1010.5
20260830191759 83 99 0.0 1.0 0.00 0.00 0.00 60 1010.5
20260830191258 82 246 2.0 3.0 0.00 0.00 0.00 61 1010.5
20260830190755 82 294 2.0 2.0 0.00 0.00 0.00 63 1010.5
20260830190250 82 101 2.0 2.0 0.00 0.00 0.00 61 1010.1
20260830185748 82 255 2.0 2.0 0.00 0.00 0.00 63 1010.5
20260830185243 82 127 0.0 0.0 0.00 0.00 0.00 63 1010.1
20260830184743 82 121 0.0 0.0 0.00 0.00 0.00 64 1009.8
20260830184242 81 49 1.0 1.0 0.00 0.00 0.00 65 1010.1
20260830183738 81 69 0.0 0.0 0.00 0.00 0.00 67 1009.8
20260830183233 81 157 1.0 2.0 0.00 0.00 0.00 63 1010.1
20260830182727 81 120 0.0 1.0 0.00 0.00 0.00 65 1010.1
20260830182224 81 54 0.0 1.0 0.00 0.00 0.00 65 1010.1
20260830181720 81 54 0.0 0.0 0.00 0.00 0.00 65 1010.1
20260830181215 81 54 0.0 0.0 0.00 0.00 0.00 65 1010.5
20260830180713 81 54 0.0 0.0 0.00 0.00 0.00 64 1010.5
20260830180208 80 54 0.0 0.0 0.00 0.00 0.00 64 1010.5
20260830175707 80 54 0.0 0.0 0.00 0.00 0.00 64 1010.1
20260830175157 80 54 0.0 0.0 0.00 0.00 0.00 63 1010.1
20260830174652 79 54 0.0 0.0 0.00 0.00 0.00 64 1010.1
20260830174148 79 54 0.0 1.0 0.00 0.00 0.00 64 1010.1
20260830173648 79 54 0.0 0.0 0.00 0.00 0.00 67 1010.1
20260830173143 79 54 0.0 0.0 0.00 0.00 0.00 68 1010.5
20260830172640 79 53 0.0 0.0 0.00 0.00 0.00 67 1010.8
20260830172136 79 30 1.0 1.0 0.00 0.00 0.00 68 1010.8
20260830171636 79 161 1.0 1.0 0.00 0.00 0.00 66 1010.8
20260830171131 79 1 0.0 0.0 0.00 0.00 0.00 69 1011.1
20260830170626 78 125 0.0 1.0 0.00 0.00 0.00 67 1011.5
20260830170125 78 214 0.0 0.0 0.00 0.00 0.00 67 1011.1
20260830165619 79 277 1.0 2.0 0.00 0.00 0.00 66 1011.1
20260830165115 79 229 1.0 2.0 0.00 0.00 0.00 67 1011.1
20260830164611 79 183 1.0 2.0 0.00 0.00 0.00 68 1011.1
20260830164107 79 309 0.0 1.0 0.00 0.00 0.00 70 1011.1
20260830163604 80 262 1.0 1.0 0.00 0.00 0.00 71 1011.1
20260830163103 81 355 1.0 1.0 0.00 0.00 0.00 69 1010.5
20260830162559 81 87 0.0 1.0 0.00 0.00 0.00 65 1010.5
20260830162055 81 88 0.0 1.0 0.00 0.00 0.00 66 1010.5
20260830161554 81 88 0.0 0.0 0.00 0.00 0.00 65 1010.1
20260830161049 81 88 0.0 0.0 0.00 0.00 0.00 64 1009.8
20260830160545 81 88 0.0 0.0 0.00 0.00 0.00 63 1009.8
20260830160040 80 88 0.0 0.0 0.00 0.00 0.00 63 1009.8
20260830155537 79 89 0.0 0.0 0.00 0.00 0.00 62 1009.8
20260830155032 79 14 0.0 0.0 0.00 0.00 0.00 64 1009.8
20260830154527 78 54 0.0 0.0 0.00 0.00 0.00 67 1009.4
20260830154023 78 53 0.0 0.0 0.00 0.00 0.00 68 1009.4
20260830153520 78 54 0.0 0.0 0.00 0.00 0.00 68 1009.4
20260830153019 78 54 0.0 0.0 0.00 0.00 0.00 68 1009.4
20260830152513 78 54 0.0 0.0 0.00 0.00 0.00 68 1009.4